QPF
0.08 0.10 0.07 0.04 0.00 0.00 0.00 0.00 0.01 0.01 0.02 0.03 0.02 0.00 0.00 0.00 0.00 0.00 0.00 0.00 0.00 0.00
0.13 0.14 0.14 0.07 0.02 0.01 0.01 0.01 0.05 0.10 0.04 0.00 0.01 0.00 0.00 0.00 0.00 0.00 0.00 0.00 0.00 0.00
0.09 0.11 0.09 0.07 0.05 0.03 0.02 0.03 0.03 0.00 0.00 0.02 0.01 0.00 0.00 0.00 0.00 0.00 0.00 0.00 0.00 0.00
0.07 0.08 0.08 0.07 0.05 0.03 0.01 0.01 0.00 0.00 0.00 0.00 0.00 0.00 0.00 0.00 0.00 0.00 0.00 0.00 0.00 0.00
0.11 0.08 0.05 0.04 0.03 0.02 0.01 0.00 0.02 0.02 0.00 0.00 0.00 0.00 0.00 0.00 0.00 0.00 0.00 0.00 0.00 0.00
0.05 0.04 0.01 0.01 0.01 0.00 0.00 0.00 0.00 0.00 0.00 0.00 0.00 0.00 0.00 0.00 0.00 0.00 0.00 0.00 0.00 0.00
0.04 0.02 0.01 0.01 0.00 0.00 0.00 0.01 0.01 0.01 0.00 0.01 0.01 0.00 0.00 0.00 0.00 0.00 0.00 0.00 0.00 0.00
0.02 0.01 0.00 0.00 0.00 0.00 0.01 0.00 0.00 0.01 0.04 0.02 0.00 0.00 0.00 0.00 0.00 0.00 0.00 0.00 0.00 0.00
0.00 0.00 0.00 0.00 0.00 0.00 0.00 0.01 0.04 0.05 0.03 0.01 0.00 0.00 0.00 0.00 0.00 0.00 0.00 0.00 0.00 0.00
0.00 0.00 0.00 0.00 0.00 0.00 0.02 0.07 0.06 0.02 0.00 0.00 0.00 0.00 0.00 0.00 0.00 0.00 0.00 0.00 0.00 0.00
0.00 0.00 0.00 0.00 0.01 0.04 0.08 0.05 0.01 0.00 0.00 0.00 0.00 0.00 0.00 0.00 0.00 0.00 0.00 0.00 0.00 0.00
0.00 0.00 0.00 0.03 0.09 0.09 0.03 0.00 0.00 0.00 0.00 0.00 0.00 0.00 0.00 0.00 0.00 0.00 0.00 0.00 0.00 0.00
0.02 0.07 0.09 0.07 0.02 0.00 0.00 0.00 0.00 0.00 0.00 0.00 0.00 0.00 0.00 0.00 0.00 0.00 0.00 0.00 0.00 0.00
0.03 0.01 0.00 0.00 0.00 0.00 0.00 0.00 0.00 0.00 0.00 0.00 0.00 0.00 0.00 0.00 0.00 0.00 0.00 0.00 0.00 0.00
MSLP
1018.26 1018.90 1019.64 1019.92 1020.33 1021.08 1021.88 1022.66 1023.15 1023.50 1024.08 1024.05 1023.93 1024.68 1025.25 1025.49 1025.92 1026.35 1026.65 1026.91 1027.09 1027.09
1017.96 1018.53 1019.04 1019.54 1019.82 1020.65 1021.36 1022.07 1022.27 1022.68 1023.29 1023.40 1023.92 1024.50 1024.89 1025.26 1025.66 1026.04 1026.43 1026.67 1026.81 1026.79
1017.33 1017.92 1018.57 1019.09 1019.55 1019.92 1020.24 1020.81 1021.82 1022.53 1023.08 1023.75 1024.37 1024.45 1024.56 1025.14 1025.66 1026.13 1026.20 1026.37 1026.52 1026.53
1017.11 1017.72 1018.41 1018.76 1019.02 1019.72 1020.47 1021.46 1022.42 1022.79 1023.19 1023.68 1024.23 1024.14 1024.68 1025.22 1025.60 1025.74 1025.77 1025.89 1026.12 1026.31
1017.41 1018.01 1018.49 1019.04 1019.54 1020.34 1021.05 1021.51 1022.03 1022.94 1023.50 1023.60 1023.81 1024.35 1024.94 1025.09 1024.99 1025.26 1025.55 1025.73 1026.01 1025.91
1017.33 1017.89 1018.63 1019.33 1019.94 1020.55 1021.15 1021.83 1022.58 1023.12 1023.56 1023.46 1024.00 1024.55 1024.64 1024.59 1024.68 1024.95 1025.03 1025.07 1025.15 1025.27
1017.70 1018.23 1018.77 1019.34 1019.97 1020.55 1021.35 1022.13 1022.04 1022.97 1023.49 1024.05 1024.20 1024.18 1024.12 1024.25 1024.27 1024.22 1024.31 1024.44 1024.59 1024.71
1018.20 1018.74 1019.34 1019.85 1020.43 1021.14 1021.35 1022.15 1023.07 1023.21 1023.59 1024.04 1023.89 1023.61 1023.35 1023.48 1023.55 1023.70 1023.72 1023.76 1023.93 1024.06
1018.51 1019.12 1019.63 1020.51 1021.32 1021.65 1021.89 1022.70 1022.76 1023.13 1023.37 1023.43 1023.16 1022.72 1022.63 1022.81 1022.90 1023.01 1023.23 1023.35 1023.27 1023.41
1019.53 1020.20 1020.83 1021.29 1021.64 1022.10 1022.36 1022.56 1022.88 1022.98 1023.10 1022.89 1022.69 1022.33 1022.15 1022.01 1022.22 1022.36 1022.40 1022.49 1022.66 1022.97
1020.26 1020.87 1021.31 1021.65 1022.05 1022.41 1022.58 1022.55 1022.63 1022.58 1022.59 1022.58 1022.21 1021.95 1021.77 1021.69 1021.76 1021.79 1021.74 1021.81 1021.92 1022.11
1020.90 1021.26 1021.60 1021.92 1022.12 1022.25 1022.49 1022.53 1022.47 1022.38 1022.33 1022.21 1021.89 1021.62 1021.47 1021.35 1021.34 1021.33 1021.21 1021.13 1021.24 1021.38
1021.41 1021.60 1021.79 1022.05 1022.30 1022.36 1022.42 1022.42 1022.34 1022.20 1021.94 1021.73 1021.49 1021.30 1021.07 1020.94 1020.90 1020.95 1020.75 1020.64 1020.67 1020.75
1021.75 1022.08 1022.22 1022.39 1022.45 1022.47 1022.51 1022.45 1022.28 1022.05 1021.62 1021.33 1021.10 1020.69 1020.46 1020.23 1020.19 1020.19 1020.05 1020.02 1019.92 1019.82
Thickness
5593 5586 5578 5574 5567 5557 5546 5535 5528 5522 5512 5508 5504 5492 5479 5469 5459 5449 5439 5430 5421 5414
5589 5583 5576 5570 5563 5553 5542 5532 5527 5522 5512 5502 5490 5478 5468 5458 5447 5437 5427 5418 5409 5400
5589 5582 5573 5567 5560 5553 5543 5533 5520 5509 5498 5485 5472 5464 5458 5446 5434 5424 5415 5405 5395 5386
5582 5574 5567 5563 5556 5545 5532 5517 5503 5495 5484 5474 5462 5456 5445 5432 5422 5412 5403 5392 5381 5370
5571 5564 5558 5549 5541 5529 5516 5507 5496 5486 5472 5463 5454 5441 5427 5418 5410 5399 5388 5377 5365 5355
5565 5557 5546 5536 5527 5516 5505 5492 5479 5470 5457 5450 5437 5425 5417 5407 5399 5388 5377 5366 5355 5343
5553 5543 5533 5524 5513 5504 5491 5478 5472 5458 5447 5432 5423 5413 5405 5396 5387 5378 5367 5354 5342 5331
5537 5528 5518 5508 5498 5486 5479 5466 5451 5442 5430 5418 5409 5402 5396 5387 5377 5366 5355 5343 5331 5319
5523 5513 5503 5490 5478 5470 5462 5447 5439 5427 5417 5408 5402 5395 5387 5376 5366 5355 5344 5331 5320 5309
5502 5491 5481 5471 5463 5453 5443 5434 5423 5414 5405 5399 5391 5384 5375 5366 5357 5346 5333 5322 5309 5297
5483 5472 5463 5454 5444 5435 5427 5421 5413 5405 5396 5388 5379 5372 5363 5354 5343 5333 5322 5310 5299 5289
5466 5457 5448 5439 5431 5424 5417 5410 5402 5393 5384 5375 5367 5358 5348 5339 5329 5318 5309 5299 5289 5279
5449 5441 5434 5426 5417 5410 5403 5395 5387 5379 5370 5363 5355 5344 5335 5323 5312 5303 5296 5288 5278 5268
5434 5425 5417 5408 5401 5393 5385 5379 5372 5365 5359 5350 5339 5332 5321 5311 5299 5289 5283 5277 5269 5259